Tracking 18984 objects as of 24-Feb-2018
HD Live streaming from Space Station
objects crossing your sky now

COSMOS 878

Track COSMOS 878 now!
10-day predictions
COSMOS 878 is classified as:


NORAD ID: 9595
Int'l Code: 1976-118H
Perigee: 1,471.1 km
Apogee: 1,481.4 km
Inclination: 74.0 °
Period: 115.3 minutes
Semi major axis: 7847 km
RCS: 0.6837 m2 (medium)
Launch date: December 7, 1976
Source: Commonwealth of Independent States (former USSR) (CIS)
Launch site: PLESETSK MISSILE AND SPACE COMPLEX (PKMTR)
aabbcc
Your satellite tracking list
Your tracking list is empty




NASA's NSSDC Master Catalog

Two Line Element Set (TLE):
1 09595U 76118H   18055.23665282 -.00000015  00000-0  50229-5 0  9994
2 09595  74.0286  82.2234 0006578  15.6449  56.5275 12.48900301879252
Source of the keplerian elements: AFSPC